;"Summenlastgang 
aller Einspeisungen MS
+ Bezug vorgelagertes Netz
+ dez. Erzeugung"
Arbeit;1.773.059.190
H�chstleistung;316.853
Zeitpunkt;05.12.2023 17:15
01.01.2023 00:00;145.004
01.01.2023 00:15;142.788
01.01.2023 00:30;142.189
01.01.2023 00:45;141.046
01.01.2023 01:00;140.201
01.01.2023 01:15;141.131
01.01.2023 01:30;138.461
01.01.2023 01:45;135.963
01.01.2023 02:00;133.049
01.01.2023 02:15;133.628
01.01.2023 02:30;132.383
01.01.2023 02:45;131.158
01.01.2023 03:00;127.004
01.01.2023 03:15;124.744
01.01.2023 03:30;123.929
01.01.2023 03:45;123.985
01.01.2023 04:00;122.272
01.01.2023 04:15;122.497
01.01.2023 04:30;121.338
01.01.2023 04:45;119.850
01.01.2023 05:00;121.046
01.01.2023 05:15;118.335
01.01.2023 05:30;119.340
01.01.2023 05:45;120.558
01.01.2023 06:00;120.363
01.01.2023 06:15;121.306
01.01.2023 06:30;122.584
01.01.2023 06:45;123.218
01.01.2023 07:00;125.118
01.01.2023 07:15;128.078
01.01.2023 07:30;129.607
01.01.2023 07:45;132.259
01.01.2023 08:00;131.940
01.01.2023 08:15;132.447
01.01.2023 08:30;136.731
01.01.2023 08:45;139.272
01.01.2023 09:00;143.194
01.01.2023 09:15;148.534
01.01.2023 09:30;151.482
01.01.2023 09:45;156.418
01.01.2023 10:00;158.506
01.01.2023 10:15;163.554
01.01.2023 10:30;166.759
01.01.2023 10:45;169.593
01.01.2023 11:00;173.724
01.01.2023 11:15;175.750
01.01.2023 11:30;183.302
01.01.2023 11:45;185.060
01.01.2023 12:00;185.489
01.01.2023 12:15;187.112
01.01.2023 12:30;187.610
01.01.2023 12:45;187.077
01.01.2023 13:00;184.248
01.01.2023 13:15;187.034
01.01.2023 13:30;186.272
01.01.2023 13:45;186.254
01.01.2023 14:00;187.215
01.01.2023 14:15;186.383
01.01.2023 14:30;184.974
01.01.2023 14:45;181.718
01.01.2023 15:00;187.239
01.01.2023 15:15;186.228
01.01.2023 15:30;185.804
01.01.2023 15:45;188.891
01.01.2023 16:00;194.613
01.01.2023 16:15;199.453
01.01.2023 16:30;202.420
01.01.2023 16:45;207.351
01.01.2023 17:00;214.508
01.01.2023 17:15;218.282
01.01.2023 17:30;217.551
01.01.2023 17:45;221.602
01.01.2023 18:00;219.342
01.01.2023 18:15;217.771
01.01.2023 18:30;215.747
01.01.2023 18:45;214.360
01.01.2023 19:00;214.408
01.01.2023 19:15;211.484
01.01.2023 19:30;207.352
01.01.2023 19:45;202.564
01.01.2023 20:00;200.856
01.01.2023 20:15;195.433
01.01.2023 20:30;192.521
01.01.2023 20:45;186.729
01.01.2023 21:00;186.259
01.01.2023 21:15;180.561
01.01.2023 21:30;177.710
01.01.2023 21:45;177.486
01.01.2023 22:00;172.375
01.01.2023 22:15;170.908
01.01.2023 22:30;167.341
01.01.2023 22:45;162.450
01.01.2023 23:00;158.790
01.01.2023 23:15;155.744
01.01.2023 23:30;151.879
01.01.2023 23:45;148.454
02.01.2023 00:00;140.462
02.01.2023 00:15;139.430
02.01.2023 00:30;134.637
02.01.2023 00:45;131.933
02.01.2023 01:00;130.236
02.01.2023 01:15;128.723
02.01.2023 01:30;125.770
02.01.2023 01:45;122.765
02.01.2023 02:00;123.509
02.01.2023 02:15;122.185
02.01.2023 02:30;121.137
02.01.2023 02:45;121.751
02.01.2023 03:00;121.674
02.01.2023 03:15;122.803
02.01.2023 03:30;121.902
02.01.2023 03:45;121.658
02.01.2023 04:00;125.791
02.01.2023 04:15;126.859
02.01.2023 04:30;128.870
02.01.2023 04:45;131.281
02.01.2023 05:00;136.803
02.01.2023 05:15;139.832
02.01.2023 05:30;146.713
02.01.2023 05:45;156.965
02.01.2023 06:00;169.917
02.01.2023 06:15;179.459
02.01.2023 06:30;184.564
02.01.2023 06:45;191.665
02.01.2023 07:00;204.866
02.01.2023 07:15;210.217
02.01.2023 07:30;214.073
02.01.2023 07:45;222.120
02.01.2023 08:00;230.550
02.01.2023 08:15;233.720
02.01.2023 08:30;236.391
02.01.2023 08:45;240.947
02.01.2023 09:00;242.754
02.01.2023 09:15;245.542
02.01.2023 09:30;248.233
02.01.2023 09:45;250.120
02.01.2023 10:00;254.239
02.01.2023 10:15;254.833
02.01.2023 10:30;255.491
02.01.2023 10:45;261.113
02.01.2023 11:00;262.069
02.01.2023 11:15;266.200
02.01.2023 11:30;264.673
02.01.2023 11:45;268.484
02.01.2023 12:00;271.767
02.01.2023 12:15;272.701
02.01.2023 12:30;270.271
02.01.2023 12:45;270.809
02.01.2023 13:00;270.141
02.01.2023 13:15;265.688
02.01.2023 13:30;263.767
02.01.2023 13:45;263.388
02.01.2023 14:00;261.758
02.01.2023 14:15;261.436
02.01.2023 14:30;259.796
02.01.2023 14:45;259.829
02.01.2023 15:00;258.541
02.01.2023 15:15;260.154
02.01.2023 15:30;258.294
02.01.2023 15:45;257.661
02.01.2023 16:00;259.776
02.01.2023 16:15;258.768
02.01.2023 16:30;262.414
02.01.2023 16:45;263.523
02.01.2023 17:00;266.860
02.01.2023 17:15;268.014
02.01.2023 17:30;268.527
02.01.2023 17:45;268.261
02.01.2023 18:00;266.868
02.01.2023 18:15;266.164
02.01.2023 18:30;263.332
02.01.2023 18:45;266.617
02.01.2023 19:00;259.027
02.01.2023 19:15;254.336
02.01.2023 19:30;250.891
02.01.2023 19:45;246.468
02.01.2023 20:00;240.794
02.01.2023 20:15;236.258
02.01.2023 20:30;230.518
02.01.2023 20:45;227.343
02.01.2023 21:00;220.436
02.01.2023 21:15;212.332
02.01.2023 21:30;210.762
02.01.2023 21:45;206.190
02.01.2023 22:00;200.466
02.01.2023 22:15;194.290
02.01.2023 22:30;190.847
02.01.2023 22:45;184.189
02.01.2023 23:00;177.919
02.01.2023 23:15;175.867
02.01.2023 23:30;170.162
02.01.2023 23:45;166.407
03.01.2023 00:00;161.054
03.01.2023 00:15;157.225
03.01.2023 00:30;153.366
03.01.2023 00:45;150.331
03.01.2023 01:00;145.218
03.01.2023 01:15;144.050
03.01.2023 01:30;141.745
03.01.2023 01:45;140.803
03.01.2023 02:00;138.182
03.01.2023 02:15;136.665
03.01.2023 02:30;134.300
03.01.2023 02:45;139.095
03.01.2023 03:00;134.948
03.01.2023 03:15;139.432
03.01.2023 03:30;136.151
03.01.2023 03:45;138.732
03.01.2023 04:00;138.965
03.01.2023 04:15;140.565
03.01.2023 04:30;144.765
03.01.2023 04:45;145.567
03.01.2023 05:00;152.459
03.01.2023 05:15;156.706
03.01.2023 05:30;162.650
03.01.2023 05:45;172.556
03.01.2023 06:00;187.999
03.01.2023 06:15;195.338
03.01.2023 06:30;199.675
03.01.2023 06:45;208.822
03.01.2023 07:00;220.598
03.01.2023 07:15;226.354
03.01.2023 07:30;232.535
03.01.2023 07:45;237.864
03.01.2023 08:00;249.085
03.01.2023 08:15;252.467
03.01.2023 08:30;254.363
03.01.2023 08:45;255.949
03.01.2023 09:00;255.168
03.01.2023 09:15;257.638
03.01.2023 09:30;256.715
03.01.2023 09:45;259.945
03.01.2023 10:00;261.414
03.01.2023 10:15;263.967
03.01.2023 10:30;266.423
03.01.2023 10:45;268.051
03.01.2023 11:00;267.967
03.01.2023 11:15;271.908
03.01.2023 11:30;272.436
03.01.2023 11:45;272.965
03.01.2023 12:00;272.182
03.01.2023 12:15;273.325
03.01.2023 12:30;272.652
03.01.2023 12:45;278.108
03.01.2023 13:00;275.106
03.01.2023 13:15;273.303
03.01.2023 13:30;269.344
03.01.2023 13:45;270.253
03.01.2023 14:00;266.780
03.01.2023 14:15;267.568
03.01.2023 14:30;266.482
03.01.2023 14:45;266.842
03.01.2023 15:00;265.463
03.01.2023 15:15;265.791
03.01.2023 15:30;265.540
03.01.2023 15:45;270.734
03.01.2023 16:00;269.754
03.01.2023 16:15;267.641
03.01.2023 16:30;269.242
03.01.2023 16:45;271.343
03.01.2023 17:00;272.709
03.01.2023 17:15;275.184
03.01.2023 17:30;274.947
03.01.2023 17:45;278.035
03.01.2023 18:00;276.713
03.01.2023 18:15;273.217
03.01.2023 18:30;273.462
03.01.2023 18:45;269.514
03.01.2023 19:00;265.691
03.01.2023 19:15;261.935
03.01.2023 19:30;256.060
03.01.2023 19:45;252.882
03.01.2023 20:00;245.185
03.01.2023 20:15;238.613
03.01.2023 20:30;231.559
03.01.2023 20:45;227.071
03.01.2023 21:00;221.215
03.01.2023 21:15;217.348
03.01.2023 21:30;211.393
03.01.2023 21:45;206.481
03.01.2023 22:00;200.452
03.01.2023 22:15;199.075
03.01.2023 22:30;192.345
03.01.2023 22:45;189.648
03.01.2023 23:00;179.798
03.01.2023 23:15;174.560
03.01.2023 23:30;171.403
03.01.2023 23:45;163.785
04.01.2023 00:00;158.411
04.01.2023 00:15;157.048
04.01.2023 00:30;156.256
04.01.2023 00:45;147.985
04.01.2023 01:00;145.371
04.01.2023 01:15;143.292
04.01.2023 01:30;140.908
04.01.2023 01:45;137.615
04.01.2023 02:00;136.012
04.01.2023 02:15;138.544
04.01.2023 02:30;134.800
04.01.2023 02:45;136.666
04.01.2023 03:00;133.426
04.01.2023 03:15;133.298
04.01.2023 03:30;135.124
04.01.2023 03:45;134.017
04.01.2023 04:00;138.079
04.01.2023 04:15;137.792
04.01.2023 04:30;140.532
04.01.2023 04:45;143.832
04.01.2023 05:00;150.804
04.01.2023 05:15;153.877
04.01.2023 05:30;160.649
04.01.2023 05:45;168.667
04.01.2023 06:00;183.921
04.01.2023 06:15;193.064
04.01.2023 06:30;202.027
04.01.2023 06:45;207.035
04.01.2023 07:00;220.229
04.01.2023 07:15;225.229
04.01.2023 07:30;231.729
04.01.2023 07:45;237.937
04.01.2023 08:00;245.361
04.01.2023 08:15;250.693
04.01.2023 08:30;258.783
04.01.2023 08:45;260.050
04.01.2023 09:00;261.920
04.01.2023 09:15;265.508
04.01.2023 09:30;267.134
04.01.2023 09:45;271.235
04.01.2023 10:00;271.455
04.01.2023 10:15;272.065
04.01.2023 10:30;274.926
04.01.2023 10:45;274.096
04.01.2023 11:00;275.617
04.01.2023 11:15;278.807
04.01.2023 11:30;279.298
04.01.2023 11:45;280.287
04.01.2023 12:00;282.939
04.01.2023 12:15;284.024
04.01.2023 12:30;284.638
04.01.2023 12:45;280.430
04.01.2023 13:00;281.179
04.01.2023 13:15;281.284
04.01.2023 13:30;281.718
04.01.2023 13:45;279.073
04.01.2023 14:00;276.117
04.01.2023 14:15;274.443
04.01.2023 14:30;271.856
04.01.2023 14:45;274.259
04.01.2023 15:00;274.477
04.01.2023 15:15;272.788
04.01.2023 15:30;270.927
04.01.2023 15:45;270.284
04.01.2023 16:00;271.873
04.01.2023 16:15;268.463
04.01.2023 16:30;273.300
04.01.2023 16:45;275.387
04.01.2023 17:00;279.193
04.01.2023 17:15;278.255
04.01.2023 17:30;276.427
04.01.2023 17:45;281.044
04.01.2023 18:00;277.155
04.01.2023 18:15;274.809
04.01.2023 18:30;273.774
04.01.2023 18:45;273.738
04.01.2023 19:00;267.925
04.01.2023 19:15;262.284
04.01.2023 19:30;257.413
04.01.2023 19:45;253.512
04.01.2023 20:00;246.472
04.01.2023 20:15;241.168
04.01.2023 20:30;234.130
04.01.2023 20:45;228.395
04.01.2023 21:00;220.689
04.01.2023 21:15;215.468
04.01.2023 21:30;210.341
04.01.2023 21:45;206.911
04.01.2023 22:00;200.913
04.01.2023 22:15;196.638
04.01.2023 22:30;190.318
04.01.2023 22:45;184.666
04.01.2023 23:00;179.652
04.01.2023 23:15;174.372
04.01.2023 23:30;168.520
04.01.2023 23:45;166.147
05.01.2023 00:00;158.600
05.01.2023 00:15;154.722
05.01.2023 00:30;154.581
05.01.2023 00:45;150.307
05.01.2023 01:00;143.522
05.01.2023 01:15;140.078
05.01.2023 01:30;138.478
05.01.2023 01:45;136.121
05.01.2023 02:00;136.493
05.01.2023 02:15;135.035
05.01.2023 02:30;132.385
05.01.2023 02:45;133.931
05.01.2023 03:00;132.547
05.01.2023 03:15;132.159
05.01.2023 03:30;133.020
05.01.2023 03:45;133.236
05.01.2023 04:00;136.763
05.01.2023 04:15;136.603
05.01.2023 04:30;139.219
05.01.2023 04:45;140.710
05.01.2023 05:00;148.987
05.01.2023 05:15;152.929
05.01.2023 05:30;159.631
05.01.2023 05:45;168.945
05.01.2023 06:00;182.731
05.01.2023 06:15;191.900
05.01.2023 06:30;198.506
05.01.2023 06:45;207.722
05.01.2023 07:00;219.429
05.01.2023 07:15;227.038
05.01.2023 07:30;234.376
05.01.2023 07:45;240.982
05.01.2023 08:00;246.897
05.01.2023 08:15;249.328
05.01.2023 08:30;256.033
05.01.2023 08:45;258.040
05.01.2023 09:00;259.561
05.01.2023 09:15;258.342
05.01.2023 09:30;259.653
05.01.2023 09:45;261.609
05.01.2023 10:00;261.759
05.01.2023 10:15;260.800
05.01.2023 10:30;262.820
05.01.2023 10:45;263.132
05.01.2023 11:00;263.864
05.01.2023 11:15;263.289
05.01.2023 11:30;262.957
05.01.2023 11:45;263.008
05.01.2023 12:00;264.715
05.01.2023 12:15;265.242
05.01.2023 12:30;263.123
05.01.2023 12:45;264.556
05.01.2023 13:00;262.204
05.01.2023 13:15;262.215
05.01.2023 13:30;260.301
05.01.2023 13:45;259.324
05.01.2023 14:00;259.469
05.01.2023 14:15;258.383
05.01.2023 14:30;259.481
05.01.2023 14:45;256.875
05.01.2023 15:00;256.055
05.01.2023 15:15;255.266
05.01.2023 15:30;253.375
05.01.2023 15:45;255.187
05.01.2023 16:00;259.203
05.01.2023 16:15;260.746
05.01.2023 16:30;264.312
05.01.2023 16:45;270.299
05.01.2023 17:00;274.533
05.01.2023 17:15;275.256
05.01.2023 17:30;273.673
05.01.2023 17:45;275.638
05.01.2023 18:00;274.622
05.01.2023 18:15;270.625
05.01.2023 18:30;271.080
05.01.2023 18:45;268.376
05.01.2023 19:00;263.356
05.01.2023 19:15;261.427
05.01.2023 19:30;258.165
05.01.2023 19:45;250.084
05.01.2023 20:00;244.474
05.01.2023 20:15;239.525
05.01.2023 20:30;231.823
05.01.2023 20:45;226.751
05.01.2023 21:00;219.013
05.01.2023 21:15;213.535
05.01.2023 21:30;210.028
05.01.2023 21:45;205.445
05.01.2023 22:00;199.874
05.01.2023 22:15;196.497
05.01.2023 22:30;190.723
05.01.2023 22:45;184.552
05.01.2023 23:00;178.251
05.01.2023 23:15;174.588
05.01.2023 23:30;167.332
05.01.2023 23:45;163.798
06.01.2023 00:00;157.110
06.01.2023 00:15;154.468
06.01.2023 00:30;148.137
06.01.2023 00:45;146.323
06.01.2023 01:00;143.949
06.01.2023 01:15;140.546
06.01.2023 01:30;138.705
06.01.2023 01:45;136.923
06.01.2023 02:00;133.777
06.01.2023 02:15;132.888
06.01.2023 02:30;133.081
06.01.2023 02:45;132.574
06.01.2023 03:00;129.983
06.01.2023 03:15;132.012
06.01.2023 03:30;131.470
06.01.2023 03:45;133.488
06.01.2023 04:00;133.865
06.01.2023 04:15;136.679
06.01.2023 04:30;139.403
06.01.2023 04:45;138.564
06.01.2023 05:00;147.710
06.01.2023 05:15;148.975
06.01.2023 05:30;159.368
06.01.2023 05:45;166.191
06.01.2023 06:00;178.971
06.01.2023 06:15;189.416
06.01.2023 06:30;194.088
06.01.2023 06:45;204.084
06.01.2023 07:00;214.517
06.01.2023 07:15;224.930
06.01.2023 07:30;230.121
06.01.2023 07:45;237.887
06.01.2023 08:00;246.644
06.01.2023 08:15;249.808
06.01.2023 08:30;251.678
06.01.2023 08:45;254.086
06.01.2023 09:00;257.264
06.01.2023 09:15;260.614
06.01.2023 09:30;265.876
06.01.2023 09:45;270.013
06.01.2023 10:00;269.551
06.01.2023 10:15;274.828
06.01.2023 10:30;272.714
06.01.2023 10:45;274.038
06.01.2023 11:00;270.762
06.01.2023 11:15;272.897
06.01.2023 11:30;271.555
06.01.2023 11:45;269.555
06.01.2023 12:00;268.109
06.01.2023 12:15;267.805
06.01.2023 12:30;267.315
06.01.2023 12:45;263.556
06.01.2023 13:00;262.013
06.01.2023 13:15;259.572
06.01.2023 13:30;257.778
06.01.2023 13:45;254.765
06.01.2023 14:00;250.855
06.01.2023 14:15;254.132
06.01.2023 14:30;254.211
06.01.2023 14:45;253.531
06.01.2023 15:00;250.938
06.01.2023 15:15;249.059
06.01.2023 15:30;248.625
06.01.2023 15:45;250.545
06.01.2023 16:00;255.448
06.01.2023 16:15;257.244
06.01.2023 16:30;262.180
06.01.2023 16:45;269.464
06.01.2023 17:00;271.678
06.01.2023 17:15;271.760
06.01.2023 17:30;272.490
06.01.2023 17:45;272.271
06.01.2023 18:00;271.377
06.01.2023 18:15;270.926
06.01.2023 18:30;268.634
06.01.2023 18:45;265.722
06.01.2023 19:00;260.465
06.01.2023 19:15;253.880
06.01.2023 19:30;249.918
06.01.2023 19:45;245.248
06.01.2023 20:00;237.471
06.01.2023 20:15;232.872
06.01.2023 20:30;225.603
06.01.2023 20:45;222.245
06.01.2023 21:00;214.201
06.01.2023 21:15;211.094
06.01.2023 21:30;205.354
06.01.2023 21:45;198.601
06.01.2023 22:00;195.756
06.01.2023 22:15;192.450
06.01.2023 22:30;186.986
06.01.2023 22:45;185.294
06.01.2023 23:00;178.580
06.01.2023 23:15;175.618
06.01.2023 23:30;167.961
06.01.2023 23:45;164.074
07.01.2023 00:00;159.446
07.01.2023 00:15;154.409
07.01.2023 00:30;150.369
07.01.2023 00:45;145.819
07.01.2023 01:00;142.936
07.01.2023 01:15;141.105
07.01.2023 01:30;137.798
07.01.2023 01:45;136.428
07.01.2023 02:00;134.039
07.01.2023 02:15;131.133
07.01.2023 02:30;129.876
07.01.2023 02:45;128.607
07.01.2023 03:00;128.980
07.01.2023 03:15;127.209
07.01.2023 03:30;127.269
07.01.2023 03:45;128.322
07.01.2023 04:00;128.383
07.01.2023 04:15;129.568
07.01.2023 04:30;130.407
07.01.2023 04:45;131.702
07.01.2023 05:00;133.495
07.01.2023 05:15;133.844
07.01.2023 05:30;136.025
07.01.2023 05:45;141.496
07.01.2023 06:00;146.234
07.01.2023 06:15;148.338
07.01.2023 06:30;149.524
07.01.2023 06:45;152.032
07.01.2023 07:00;160.011
07.01.2023 07:15;160.405
07.01.2023 07:30;165.547
07.01.2023 07:45;171.597
07.01.2023 08:00;176.771
07.01.2023 08:15;181.590
07.01.2023 08:30;187.944
07.01.2023 08:45;193.764
07.01.2023 09:00;198.028
07.01.2023 09:15;204.812
07.01.2023 09:30;208.820
07.01.2023 09:45;211.338
07.01.2023 10:00;216.764
07.01.2023 10:15;219.708
07.01.2023 10:30;218.397
07.01.2023 10:45;221.848
07.01.2023 11:00;225.686
07.01.2023 11:15;231.017
07.01.2023 11:30;229.498
07.01.2023 11:45;229.686
07.01.2023 12:00;232.902
07.01.2023 12:15;233.877
07.01.2023 12:30;234.501
07.01.2023 12:45;235.802
07.01.2023 13:00;233.133
07.01.2023 13:15;230.673
07.01.2023 13:30;229.228
07.01.2023 13:45;226.053
07.01.2023 14:00;226.951
07.01.2023 14:15;222.986
07.01.2023 14:30;222.321
07.01.2023 14:45;221.529
07.01.2023 15:00;219.746
07.01.2023 15:15;217.628
07.01.2023 15:30;218.229
07.01.2023 15:45;220.037
07.01.2023 16:00;223.112
07.01.2023 16:15;224.165
07.01.2023 16:30;229.424
07.01.2023 16:45;236.787
07.01.2023 17:00;242.958
07.01.2023 17:15;244.147
07.01.2023 17:30;246.960
07.01.2023 17:45;247.841
07.01.2023 18:00;247.953
07.01.2023 18:15;246.374
07.01.2023 18:30;246.465
07.01.2023 18:45;244.459
07.01.2023 19:00;241.540
07.01.2023 19:15;240.132
07.01.2023 19:30;238.444
07.01.2023 19:45;229.762
07.01.2023 20:00;222.076
07.01.2023 20:15;216.525
07.01.2023 20:30;210.714
07.01.2023 20:45;205.705
07.01.2023 21:00;201.462
07.01.2023 21:15;196.610
07.01.2023 21:30;192.901
07.01.2023 21:45;189.313
07.01.2023 22:00;186.497
07.01.2023 22:15;182.632
07.01.2023 22:30;177.050
07.01.2023 22:45;175.840
07.01.2023 23:00;168.347
07.01.2023 23:15;165.684
07.01.2023 23:30;162.446
07.01.2023 23:45;157.946
08.01.2023 00:00;151.573
08.01.2023 00:15;148.593
08.01.2023 00:30;144.636
08.01.2023 00:45;140.952
08.01.2023 01:00;137.359
08.01.2023 01:15;135.675
08.01.2023 01:30;131.927
08.01.2023 01:45;129.435
08.01.2023 02:00;127.364
08.01.2023 02:15;126.283
08.01.2023 02:30;124.541
08.01.2023 02:45;123.129
08.01.2023 03:00;122.484
08.01.2023 03:15;120.977
08.01.2023 03:30;120.509
08.01.2023 03:45;119.947
08.01.2023 04:00;119.591
08.01.2023 04:15;120.807
08.01.2023 04:30;120.031
08.01.2023 04:45;121.948
08.01.2023 05:00;121.482
08.01.2023 05:15;122.530
08.01.2023 05:30;123.044
08.01.2023 05:45;123.628
08.01.2023 06:00;124.224
08.01.2023 06:15;126.678
08.01.2023 06:30;128.624
08.01.2023 06:45;130.869
08.01.2023 07:00;135.136
08.01.2023 07:15;137.001
08.01.2023 07:30;141.434
08.01.2023 07:45;144.120
08.01.2023 08:00;151.539
08.01.2023 08:15;156.587
08.01.2023 08:30;159.183
08.01.2023 08:45;165.809
08.01.2023 09:00;171.302
08.01.2023 09:15;175.924
08.01.2023 09:30;183.255
08.01.2023 09:45;185.832
08.01.2023 10:00;190.742
08.01.2023 10:15;195.388
08.01.2023 10:30;199.598
08.01.2023 10:45;201.195
08.01.2023 11:00;203.862
08.01.2023 11:15;207.243
08.01.2023 11:30;207.742
08.01.2023 11:45;207.505
08.01.2023 12:00;206.892
08.01.2023 12:15;208.847
08.01.2023 12:30;207.260
08.01.2023 12:45;207.107
08.01.2023 13:00;205.676
08.01.2023 13:15;205.294
08.01.2023 13:30;205.422
08.01.2023 13:45;201.424
08.01.2023 14:00;204.489
08.01.2023 14:15;201.176
08.01.2023 14:30;199.652
08.01.2023 14:45;198.862
08.01.2023 15:00;200.792
08.01.2023 15:15;202.623
08.01.2023 15:30;203.884
08.01.2023 15:45;206.188
08.01.2023 16:00;208.957
08.01.2023 16:15;212.526
08.01.2023 16:30;219.638
08.01.2023 16:45;222.428
08.01.2023 17:00;231.568
08.01.2023 17:15;233.528
08.01.2023 17:30;235.362
08.01.2023 17:45;237.333
08.01.2023 18:00;241.061
08.01.2023 18:15;237.550
08.01.2023 18:30;238.811
08.01.2023 18:45;236.102
08.01.2023 19:00;233.486
08.01.2023 19:15;231.514
08.01.2023 19:30;226.396
08.01.2023 19:45;222.563
08.01.2023 20:00;219.214
08.01.2023 20:15;214.190
08.01.2023 20:30;211.740
08.01.2023 20:45;207.799
08.01.2023 21:00;198.665
08.01.2023 21:15;196.627
08.01.2023 21:30;191.681
08.01.2023 21:45;190.830
08.01.2023 22:00;188.135
08.01.2023 22:15;184.782
08.01.2023 22:30;180.033
08.01.2023 22:45;175.519
08.01.2023 23:00;167.752
08.01.2023 23:15;165.512
08.01.2023 23:30;161.970
08.01.2023 23:45;160.229
09.01.2023 00:00;150.800
09.01.2023 00:15;148.847
09.01.2023 00:30;146.803
09.01.2023 00:45;142.490
09.01.2023 01:00;137.851
09.01.2023 01:15;137.013
09.01.2023 01:30;135.968
09.01.2023 01:45;134.853
09.01.2023 02:00;131.605
09.01.2023 02:15;131.698
09.01.2023 02:30;132.380
09.01.2023 02:45;131.499
09.01.2023 03:00;130.427
09.01.2023 03:15;132.724
09.01.2023 03:30;133.020
09.01.2023 03:45;135.426
09.01.2023 04:00;135.585
09.01.2023 04:15;137.730
09.01.2023 04:30;140.506
09.01.2023 04:45;144.349
09.01.2023 05:00;150.483
09.01.2023 05:15;153.305
09.01.2023 05:30;162.811
09.01.2023 05:45;173.526
09.01.2023 06:00;190.898
09.01.2023 06:15;205.158
09.01.2023 06:30;217.751
09.01.2023 06:45;228.969
09.01.2023 07:00;241.733
09.01.2023 07:15;249.846
09.01.2023 07:30;253.656
09.01.2023 07:45;260.574
09.01.2023 08:00;265.797
09.01.2023 08:15;267.771
09.01.2023 08:30;270.000
09.01.2023 08:45;269.326
09.01.2023 09:00;274.522
09.01.2023 09:15;279.011
09.01.2023 09:30;277.605
09.01.2023 09:45;279.030
09.01.2023 10:00;277.254
09.01.2023 10:15;277.986
09.01.2023 10:30;280.382
09.01.2023 10:45;283.576
09.01.2023 11:00;280.565
09.01.2023 11:15;281.117
09.01.2023 11:30;280.953
09.01.2023 11:45;279.259
09.01.2023 12:00;281.283
09.01.2023 12:15;283.943
09.01.2023 12:30;284.784
09.01.2023 12:45;289.247
09.01.2023 13:00;285.394
09.01.2023 13:15;286.240
09.01.2023 13:30;281.354
09.01.2023 13:45;277.106
09.01.2023 14:00;274.954
09.01.2023 14:15;275.514
09.01.2023 14:30;275.869
09.01.2023 14:45;275.337
09.01.2023 15:00;274.833
09.01.2023 15:15;270.303
09.01.2023 15:30;270.358
09.01.2023 15:45;270.135
09.01.2023 16:00;272.418
09.01.2023 16:15;270.836
09.01.2023 16:30;274.345
09.01.2023 16:45;277.737
09.01.2023 17:00;282.946
09.01.2023 17:15;282.632
09.01.2023 17:30;284.970
09.01.2023 17:45;284.819
09.01.2023 18:00;285.464
09.01.2023 18:15;281.911
09.01.2023 18:30;280.298
09.01.2023 18:45;279.132
09.01.2023 19:00;276.921
09.01.2023 19:15;270.603
09.01.2023 19:30;262.954
09.01.2023 19:45;262.617
09.01.2023 20:00;253.512
09.01.2023 20:15;245.386
09.01.2023 20:30;238.269
09.01.2023 20:45;233.639
09.01.2023 21:00;227.646
09.01.2023 21:15;222.309
09.01.2023 21:30;216.106
09.01.2023 21:45;212.739
09.01.2023 22:00;205.028
09.01.2023 22:15;197.660
09.01.2023 22:30;193.586
09.01.2023 22:45;189.321
09.01.2023 23:00;179.670
09.01.2023 23:15;176.196
09.01.2023 23:30;169.510
09.01.2023 23:45;164.838
10.01.2023 00:00;158.071
10.01.2023 00:15;158.198
10.01.2023 00:30;151.759
10.01.2023 00:45;149.402
10.01.2023 01:00;145.313
10.01.2023 01:15;143.665
10.01.2023 01:30;140.981
10.01.2023 01:45;140.974
10.01.2023 02:00;139.558
10.01.2023 02:15;137.715
10.01.2023 02:30;137.331
10.01.2023 02:45;138.042
10.01.2023 03:00;136.869
10.01.2023 03:15;137.452
10.01.2023 03:30;137.549
10.01.2023 03:45;139.047
10.01.2023 04:00;141.464
10.01.2023 04:15;143.170
10.01.2023 04:30;147.138
10.01.2023 04:45;151.175
10.01.2023 05:00;157.183
10.01.2023 05:15;161.290
10.01.2023 05:30;169.910
10.01.2023 05:45;180.363
10.01.2023 06:00;194.815
10.01.2023 06:15;208.101
10.01.2023 06:30;219.370
10.01.2023 06:45;230.860
10.01.2023 07:00;246.318
10.01.2023 07:15;250.095
10.01.2023 07:30;255.164
10.01.2023 07:45;260.949
10.01.2023 08:00;269.529
10.01.2023 08:15;269.219
10.01.2023 08:30;271.303
10.01.2023 08:45;273.357
10.01.2023 09:00;272.415
10.01.2023 09:15;275.950
10.01.2023 09:30;276.639
10.01.2023 09:45;279.227
10.01.2023 10:00;275.805
10.01.2023 10:15;279.382
10.01.2023 10:30;282.049
10.01.2023 10:45;282.864
10.01.2023 11:00;282.876
10.01.2023 11:15;284.875
10.01.2023 11:30;283.343
10.01.2023 11:45;285.085
10.01.2023 12:00;286.715
10.01.2023 12:15;284.286
10.01.2023 12:30;281.529
10.01.2023 12:45;278.261